Погода в Бурен-Хеме

Россия / Республика Тыва     51°39′02″N   95°00′30″E
темп.,
°C
ветер,
м/с
пор.,
м/с
влажн.,
%
обл.,
%
осадки,
мм/ч
давл.,
гПа
погр.,
м
20 января, ср
ср2001:00−16св1184100 0.0 102520
04:00−16в0097100 0.2 102320
07:00−17зюз1199100 0.6 102523
10:00−18св119799 0.1 102620
13:00−14ю119492 0.1 102686
16:00−18з009924 0.0 102720
19:00−19св228912 0.0 103120
22:00−19св22830 0.0 103220
21 января, чт
чт2101:00−19св228419 0.0 103320
04:00−19св228989 0.0 103320
07:00−19всв129394 0.0 103320
10:00−15всв1192100 0.0 103135
13:00−14ю1194100 0.3 1028113
16:00−13юз1196100 0.3 102650
19:00−16св1192100 0.3 102720
22:00−15всв1187100 0.0 102620
22 января, пт
пт2201:00−13всв1194100 0.1 102421
04:00−16всв0198100 0.1 102320
07:00−17всв129792 0.1 102120
10:00−15всв119225 0.0 102021
13:00−12ю119337 0.0 101690
16:00−13юв009299 0.0 101524
19:00−16св1187100 0.0 101620
22:00−17св118796 0.0 101620
23 января, сб
сб2301:00−15зсз118494 0.0 101720
04:00−14зюз1193100 0.1 101925
07:00−17з1299100 0.3 102121
10:00−15сз1197100 0.1 102429
13:00−14ююз2298100 0.2 1023112
16:00−14зюз1196100 0.9 1025103
19:00−14з1297100 2.2 102873
22:00−14зсз1195100 0.4 103135
24 января, вс
вс2401:00−17с2280100 0.4 103332
04:00−18ссв2375100 0.0 103528
07:00−18ссв2274100 0.0 103624
10:00−17ссв1176100 0.0 103636
13:00−15юз1279100 0.0 1034237
16:00−17юз1295100 0.0 103444
19:00−19с1191100 0.0 103820
22:00−20ссв2282100 0.0 103922